Hourly Data Report for September 22, 2017

All times are specified in Local Standard Time (LST). Add 1 hour to adjust for Daylight Saving Time where and when it is observed.

WINNIPEG A CS
MANITOBA

49°55'00.000" N
97°14'58.000" W
238.70 m
502S001
71849
XWG

Download Data

Hourly Data (September 2017)
Hourly Data Report for September 22, 2017
Temp Definition
°C
Dew Point Temp Definition
°C
Rel Hum Definition
%
Wind Dir Definition
10's deg

Wind Spd Definition
km/h
Visibility Definition
km
Stn Press Definition
kPa
Hmdx Definition


Wind Chill Definition


Weather Definition


TIME
00:00 12.7 10.4 86 32 13   98.09     LegendNANA
01:00 12.2 9.8 85 33 10   98.06     LegendNANA
02:00 10.9 9.5 91 31 14   98.13     LegendNANA
03:00 10.9 8.8 87 31 10   98.22     LegendNANA
04:00 10.8 8.6 86 32 14   98.28     LegendNANA
05:00 9.4 7.4 87 33 9   98.34     LegendNANA
06:00 8.0 7.1 94 33 11   98.45     LegendNANA
07:00 9.3 7.4 88 1 11   98.38     LegendNANA
08:00 11.4 7.8 78 2 16   98.40     LegendNANA
09:00 13.5 7.9 69 1 22   98.46     LegendNANA
10:00 15.6 8.5 63 4 15   98.44     LegendNANA
11:00 18.0 8.2 53 2 27   98.36     LegendNANA
12:00 18.0 9.8 59 3 27   98.35     LegendNANA
13:00 18.4 8.0 51 2 33   98.25     LegendNANA
14:00 17.5 7.9 53 2 32   98.22     LegendNANA
15:00 15.7 8.4 62 2 30   98.16     LegendNANA
16:00 14.6 8.8 68 2 37   97.97     LegendNANA
17:00 11.9 10.6 92 36 39   98.22     LegendNANA
18:00 11.7 9.8 88 1 32   98.30     LegendNANA
19:00 11.2 9.4 89 35 36   98.24     LegendNANA
20:00 10.4 9.5 94 35 31   98.36     LegendNANA
21:00 9.9 9.1 95 36 23   98.32     LegendNANA
22:00 9.8 8.9 94 1 31   98.26     LegendNANA
23:00 9.9 8.8 93 35 25   98.31     LegendNANA

Notes on Data Quality.

Legend

  • E = Estimated
  • M = Missing
  • NA = Not Available
  • ‡ = Partner data that is not subject to review by the National Climate Archives
Date modified: